Strona główna
METAR-TAF:

METAR-TAF

Lotnisko :

Greater Kankakee Airport

Kankakee, Illinois, Stany Zjednoczone

Szerokość geograficzna: 41-04-17N, Długość geograficzna: 087-50-47W, wysokość: 192 m

Aktualna obserwacja pogody

Raport powstał 17 minut temu, godzina 02:15 UTC
Cisza
Temperatura -4°C
Wilgotność 100%
Ciśnienie 1021 hPa
Widzialność: 2.4 km

METAR: KIKK 170215Z AUTO 00000KT 1 1/2SM VV007 M04/M04 A3014 RMK AO2 VIS 1V4 T10361039 PWINO

czas: 20:32 (02:32 UTC)


TAF: brakujący

Obserwacja i prognoza pogody dla ponad 4000 lotnisk (raport METAR i TAF).

Dostępne stacje oznaczono żółtymi i czerwonymi punktami na mapie.

Najedź kursorem aby zobaczyć nazwę stacji.

Kliknij aby zobaczyć obserwacje i prognozy pogody.

Aby zmienić mapę: kliknij na zielony przycisk z czarnym krzyżykiem, aby powiększyć; na zielony przycisk z myślnikiem, aby pomniejszyć; na zielone strzałki, aby przejść do map sąsiednich.


METAR-TAF: